User: anonymous   Login
Location: Observatorio Las Palmas
(29.0667°N, 110.9333°W)
Time: 03:19:23
(UTC-07:00)
Language:

NOAA 19 - Orbit

View from above orbital plane
View from above orbital plane
View from above satellite
View from above satellite

Ground track
Ground track

The orbit data is extracted from the following two-line orbital elements,

1 33591U 09005A   14296.49131012  .00000421  00000-0  25526-3 0  4342
2 33591 098.9592 241.2206 0015015 116.0555 352.7585 14.11785066294095
Epoch (UTC): 23 October 2014 11:47:29
Eccentricity: 0.0015015
inclination: 98.9592°
perigee height: 842 km
apogee height: 864 km
right ascension of ascending node: 241.2206°
argument of perigee: 116.0555°
revolutions per day: 14.11785066
mean anomaly at epoch: 352.7585°
orbit number at epoch: 29409

The dashed part of the orbit path shows where the satellite is in the earth's shadow,  

DLR